DW7259 Weather Reports


time (UTC)temp
C
wind
direction
speed
KPH
gust
KPH
rain 1hr
cm
rain 24hr
cm
rain mn
cm
humidity
%
barometer
mb
20260506073011 13 360 0.0 0.0 0.00 0.00 0.00 56 1007.7
20260506071507 14 360 0.0 0.0 0.00 0.00 0.00 53 1007.7
20260506061502 15 269 0.0 4.8 0.00 0.00 0.00 51 1007.1
20260506050109 17 360 1.6 4.8 0.00 0.00 0.00 45 1006.3
20260506044602 17 360 0.0 8.0 0.00 0.00 0.00 47 1006.1
20260506043102 17 32 1.6 6.4 0.00 0.00 0.00 46 1006.1
20260506041558 17 56 1.6 8.0 0.00 0.00 0.00 49 1006.0
20260506040057 17 360 1.6 9.7 0.00 0.00 0.00 47 1005.8
20260506034603 17 360 0.0 9.7 0.00 0.15 0.00 46 1005.4
20260506033114 17 360 1.6 12.9 0.00 0.15 0.00 47 1005.1
20260506031556 18 360 4.8 20.9 0.00 0.15 0.00 47 1005.0
20260506024613 18 360 1.6 9.7 0.00 0.23 0.00 45 1004.9
20260506023102 18 32 0.0 0.0 0.00 0.23 0.00 43 1004.8
20260506021559 19 360 0.0 1.6 0.00 0.23 0.00 41 1004.7
20260506020053 20 34 0.0 3.2 0.00 0.23 0.00 38 1004.7
20260506014552 20 360 0.0 6.4 0.00 0.36 0.00 37 1004.6
20260506013052 20 360 1.6 8.0 0.00 0.36 0.00 35 1004.8
20260506011610 20 173 3.2 9.7 0.00 0.36 0.00 37 1004.9
20260506010047 20 173 1.6 12.9 0.00 0.36 0.00 37 1004.9
20260506004547 20 173 0.0 6.4 0.00 0.38 0.00 37 1005.0
20260506003045 20 173 1.6 8.0 0.00 0.38 0.00 36 1005.1
20260506001545 20 173 4.8 14.5 0.00 0.38 0.00 37 1005.1
20260506000053 20 182 1.6 9.7 0.00 0.38 0.00 36 1005.2
20260505234543 20 182 3.2 8.0 0.00 0.38 0.00 38 1005.3
20260505233041 20 182 3.2 11.3 0.00 0.38 0.00 38 1005.3
20260505231544 20 182 0.0 14.5 0.00 0.38 0.00 36 1005.5
20260505230041 20 182 8.0 16.1 0.00 0.38 0.00 36 1005.6
20260505224541 20 215 0.0 11.3 0.00 0.38 0.00 39 1005.8
20260505223039 20 213 1.6 11.3 0.00 0.38 0.00 39 1005.8
20260505221545 21 201 3.2 11.3 0.00 0.38 0.00 41 1006.1
20260505220052 21 200 1.6 9.7 0.00 0.38 0.00 38 1006.4
20260505214533 20 200 0.0 8.0 0.00 0.38 0.00 42 1006.7
20260505213033 19 200 0.0 9.7 0.00 0.38 0.00 44 1006.8
20260505211537 19 232 3.2 11.3 0.00 0.38 0.00 44 1006.9
20260505210028 18 233 3.2 9.7 0.00 0.38 0.00 49 1007.2
20260505204526 18 233 3.2 8.0 0.00 0.38 0.00 49 1007.3
20260505203022 17 244 4.8 12.9 0.00 0.38 0.00 52 1007.3
20260505201520 16 248 0.0 11.3 0.00 0.38 0.00 51 1007.5
20260505200018 17 250 3.2 11.3 0.00 0.38 0.00 52 1007.7
20260505194521 16 248 3.2 9.7 0.00 0.38 0.00 54 1007.9
20260505193015 16 223 0.0 12.9 0.00 0.38 0.00 59 1007.9
20260505191512 16 230 3.2 8.0 0.00 0.38 0.00 60 1007.8
20260505190007 15 233 0.0 6.4 0.00 0.38 0.00 63 1007.8
20260505184503 13 252 0.0 6.4 0.00 0.38 0.00 69 1007.8
20260505183106 13 252 1.6 6.4 0.00 0.38 0.00 68 1007.8
20260505181607 13 270 1.6 4.8 0.00 0.38 0.00 72 1007.8
20260505180055 12 286 0.0 8.0 0.00 0.38 0.00 76 1007.7
20260505174551 11 281 0.0 9.7 0.00 0.38 0.00 81 1007.7
20260505173047 11 43 0.0 6.4 0.00 0.38 0.00 81 1007.6
20260505171545 10 43 0.0 6.4 0.00 0.38 0.00 83 1007.6
20260505170038 9 43 0.0 4.8 0.00 0.38 0.00 83 1007.6
20260505164552 9 43 0.0 3.2 0.00 0.38 0.00 83 1007.6
20260505163036 8 43 0.0 6.4 0.00 0.38 0.00 83 1007.6
20260505161533 8 43 0.0 4.8 0.00 0.38 0.00 83 1007.3
20260505153018 7 43 0.0 0.0 0.00 0.38 0.00 83 1006.8
20260505151516 7 43 0.0 0.0 0.00 0.38 0.00 80 1006.7
20260505130105 6 43 0.0 6.4 0.00 0.38 0.00 78 1005.2
20260505124612 6 43 1.6 8.0 0.00 0.38 0.00 78 1005.2
20260505123101 7 43 0.0 1.6 0.00 0.38 0.00 77 1005.3
20260505121559 7 43 0.0 3.2 0.00 0.38 0.00 77 1005.3
20260505120106 7 43 0.0 4.8 0.00 0.38 0.00 77 1005.1
20260505114557 6 43 0.0 0.0 0.00 0.38 0.00 77 1005.2
20260505113114 6 43 0.0 0.0 0.00 0.38 0.00 77 1005.1
20260505111555 6 43 0.0 0.0 0.00 0.38 0.00 78 1005.1
20260505101552 6 43 0.0 1.6 0.00 0.38 0.00 78 1005.3
20260505100051 6 43 0.0 4.8 0.00 0.38 0.00 78 1005.4
20260505094549 6 43 0.0 8.0 0.00 0.38 0.00 78 1005.6
20260505093054 6 44 1.6 6.4 0.00 0.38 0.00 79 1005.6
20260505091548 6 44 0.0 11.3 0.00 0.38 0.00 79 1005.5
20260505090046 6 89 3.2 12.9 0.00 0.38 0.00 79 1005.6
20260505084551 6 119 0.0 0.0 0.00 0.38 0.00 81 1005.7
20260505083050 6 119 0.0 0.0 0.00 0.38 0.00 80 1005.9
20260505081548 6 119 0.0 0.0 0.00 0.38 0.00 80 1006.2